Carbondale, IL

6:32 PM CST on December 12, 2019 (GMT -0600)
Southern Illinois

Weather History for KMDH - July, 2019

Change the Weather History Date:

Wednesday, July 24, 2019

  Actual Average Record
Temperature  
Mean Temperature 72 °F -  
Max Temperature 84 °F 88 °F 112 °F (1934)
Min Temperature 62 °F 66 °F 48 °F (1947)
Cooling Degree Days 7    
Growing Degree Days 22 (Base 50)    
Moisture  
Dew Point 62 °F    
Average Humidity 73    
Maximum Humidity 97    
Minimum Humidity 47    
Precipitation  
Precipitation 0.00 in - - ()
Sea Level Pressure  
Sea Level Pressure 30.13 in    
Wind  
Wind Speed 4 mph (NNE)    
Max Wind Speed 7 mph    
Max Gust Speed -    
Visibility 10 miles    
Events      
Averages and records for this station are not official NWS values.
T = Trace of Precipitation, MM = Missing Value Source: NWS Daily Summary

Daily Weather History Graph

Daily Weather History Graph

Search for Another Location

Airport or City:

Astronomy

Jul. 24, 2019 Rise Set
Actual Time 5:53 AM CDT 8:12 PM CDT
Civil Twilight 5:23 AM CDT 8:42 PM CDT
Nautical Twilight 4:47 AM CDT 9:19 PM CDT
Astronomical Twilight 4:07 AM CDT 9:59 PM CDT
Moon 12:07 AM CDT (7/24) 12:57 PM CDT (7/24)
Length of Visible Light 15h 18m
Length of Day
14h 19m
Waning Gibbous, 53% of the Moon is Illuminated
Jul 24
Waning Gibbous
Jul 24
Last Quarter
Jul 31
New
Aug 7
First Quarter
Aug 15
Full

Hourly Weather History & Observations

Time (CDT) Temp. Heat Index Dew Point Humidity Pressure Visibility Wind Dir Wind Speed Gust Speed Precip Events Conditions
12:52 AM 64.0 °F - 61.0 °F 90% 30.10 in 10.0 mi Calm Calm - N/A   Clear
1:52 AM 63.0 °F - 61.0 °F 93% 30.10 in 10.0 mi Calm Calm - N/A   Clear
2:52 AM 64.0 °F - 60.1 °F 87% 30.10 in 10.0 mi North 4.6 mph - N/A   Clear
3:52 AM 63.0 °F - 60.1 °F 90% 30.11 in 10.0 mi NNW 6.9 mph - N/A   Clear
4:52 AM 62.1 °F - 60.1 °F 93% 30.12 in 10.0 mi NNW 5.8 mph - N/A   Clear
5:52 AM 62.1 °F - 60.1 °F 93% 30.13 in 10.0 mi NNW 6.9 mph - N/A   Clear
6:52 AM 63.0 °F - 61.0 °F 93% 30.15 in 10.0 mi NNW 6.9 mph - N/A   Clear
7:52 AM 66.9 °F - 63.0 °F 87% 30.18 in 10.0 mi NNW 4.6 mph - N/A   Clear
8:52 AM 72.0 °F - 60.1 °F 66% 30.18 in 10.0 mi ENE 3.5 mph - N/A   Clear
9:52 AM 75.0 °F - 62.1 °F 64% 30.18 in 10.0 mi Variable 3.5 mph - N/A   Clear
10:52 AM 78.1 °F - 62.1 °F 58% 30.18 in 10.0 mi North - - N/A   Clear
11:52 AM 80.1 °F 80.6 °F 57.9 °F 47% 30.16 in 10.0 mi NNE 6.9 mph - N/A   Clear
12:52 PM 80.1 °F 80.9 °F 60.1 °F 50% 30.15 in 10.0 mi NNE 6.9 mph - N/A   Clear
1:52 PM 82.0 °F 82.7 °F 61.0 °F 49% 30.14 in 10.0 mi NNE 6.9 mph - N/A   Scattered Clouds
2:52 PM 82.0 °F 82.4 °F 60.1 °F 47% 30.12 in 10.0 mi Variable 4.6 mph - N/A   Partly Cloudy
3:52 PM 82.9 °F 83.7 °F 62.1 °F 49% 30.11 in 10.0 mi NNE 6.9 mph - N/A   Scattered Clouds
4:52 PM 81.0 °F 81.6 °F 60.1 °F 49% 30.11 in 10.0 mi NNE 5.8 mph - N/A   Clear
5:52 PM 79.0 °F - 61.0 °F 54% 30.10 in 10.0 mi NNE 3.5 mph - N/A   Clear
6:52 PM 80.1 °F 81.1 °F 61.0 °F 52% 30.11 in 10.0 mi NNE 5.8 mph - N/A   Scattered Clouds
7:52 PM 75.9 °F - 64.0 °F 67% 30.11 in 10.0 mi NE 3.5 mph - N/A   Clear
8:52 PM 70.0 °F - 66.0 °F 87% 30.11 in 10.0 mi Calm Calm - N/A   Clear
9:52 PM 68.0 °F - 64.9 °F 90% 30.12 in 10.0 mi Calm Calm - N/A   Clear
10:52 PM 66.0 °F - 64.0 °F 93% 30.13 in 9.0 mi ESE 3.5 mph - N/A   Clear
11:52 PM 64.9 °F - 64.0 °F 97% 30.13 in 9.0 mi Calm Calm - N/A   Clear